Year,Month,Day,Hour,Minute,Value (Times are PST for temperature in C)
2018,04,15,00,00,3.10
2018,04,15,00,01,3.10
2018,04,15,00,02,3.10
2018,04,15,00,03,3.10
2018,04,15,00,04,3.10
2018,04,15,00,05,3.10
2018,04,15,00,06,3.10
2018,04,15,00,07,3.10
2018,04,15,00,08,3.10
2018,04,15,00,09,3.10
2018,04,15,00,10,3.10
2018,04,15,00,11,3.00
2018,04,15,00,12,3.00
2018,04,15,00,13,3.00
2018,04,15,00,14,3.00
2018,04,15,00,15,3.00
2018,04,15,00,16,3.00
2018,04,15,00,17,3.00
2018,04,15,00,18,3.00
2018,04,15,00,19,3.00
2018,04,15,00,20,3.00
2018,04,15,00,21,3.10
2018,04,15,00,22,3.10
2018,04,15,00,23,3.10
2018,04,15,00,24,3.10
2018,04,15,00,25,3.10
2018,04,15,00,26,3.10
2018,04,15,00,27,3.00
2018,04,15,00,28,3.00
2018,04,15,00,29,3.00
2018,04,15,00,30,3.00
2018,04,15,00,31,3.00
2018,04,15,00,32,3.00
2018,04,15,00,33,3.00
2018,04,15,00,34,2.90
2018,04,15,00,35,2.90
2018,04,15,00,36,2.90
2018,04,15,00,37,2.90
2018,04,15,00,38,2.90
2018,04,15,00,39,2.90
2018,04,15,00,40,2.90
2018,04,15,00,41,2.90
2018,04,15,00,42,2.90
2018,04,15,00,43,2.90
2018,04,15,00,44,2.90
2018,04,15,00,45,2.90
2018,04,15,00,46,2.90
2018,04,15,00,47,2.90
2018,04,15,00,48,2.90
2018,04,15,00,49,2.90
2018,04,15,00,50,3.00
2018,04,15,00,51,3.00
2018,04,15,00,52,3.00
2018,04,15,00,53,3.00
2018,04,15,00,54,3.00
2018,04,15,00,55,3.00
2018,04,15,00,56,3.00
2018,04,15,00,57,3.00
2018,04,15,00,58,2.90
2018,04,15,00,59,2.90
2018,04,15,01,00,2.90
2018,04,15,01,01,2.90
2018,04,15,01,02,2.90
2018,04,15,01,03,2.90
2018,04,15,01,04,2.90
2018,04,15,01,05,2.90
2018,04,15,01,06,2.90
2018,04,15,01,07,2.90
2018,04,15,01,08,2.90
2018,04,15,01,09,2.80
2018,04,15,01,10,2.80
2018,04,15,01,11,2.80
2018,04,15,01,12,2.80
2018,04,15,01,13,2.80
2018,04,15,01,14,2.80
2018,04,15,01,15,2.80
2018,04,15,01,16,2.80
2018,04,15,01,17,2.80
2018,04,15,01,18,2.80
2018,04,15,01,19,2.80
2018,04,15,01,20,2.80
2018,04,15,01,21,2.80
2018,04,15,01,22,2.80
2018,04,15,01,23,2.80
2018,04,15,01,24,2.80
2018,04,15,01,25,2.80
2018,04,15,01,26,2.80
2018,04,15,01,27,2.80
2018,04,15,01,28,2.70
2018,04,15,01,29,2.70
2018,04,15,01,30,2.70
2018,04,15,01,31,2.70
2018,04,15,01,32,2.70
2018,04,15,01,33,2.70
2018,04,15,01,34,2.70
2018,04,15,01,35,2.70
2018,04,15,01,36,2.70
2018,04,15,01,37,2.70
2018,04,15,01,38,2.70
2018,04,15,01,39,2.70
2018,04,15,01,40,2.60
2018,04,15,01,41,2.60
2018,04,15,01,42,2.60
2018,04,15,01,43,2.60
2018,04,15,01,44,2.50
2018,04,15,01,45,2.50
2018,04,15,01,46,2.50
2018,04,15,01,47,2.50
2018,04,15,01,48,2.50
2018,04,15,01,49,2.50
2018,04,15,01,50,2.50
2018,04,15,01,51,2.50
2018,04,15,01,52,2.50
2018,04,15,01,53,2.50
2018,04,15,01,54,2.50
2018,04,15,01,55,2.50
2018,04,15,01,56,2.50
2018,04,15,01,57,2.40
2018,04,15,01,58,2.40
2018,04,15,01,59,2.40
2018,04,15,02,00,2.40
2018,04,15,02,01,2.40
2018,04,15,02,02,2.40
2018,04,15,02,03,2.40
2018,04,15,02,04,2.40
2018,04,15,02,05,2.40
2018,04,15,02,06,2.40
2018,04,15,02,07,2.40
2018,04,15,02,08,2.40
2018,04,15,02,09,2.40
2018,04,15,02,10,2.40
2018,04,15,02,11,2.40
2018,04,15,02,12,2.40
2018,04,15,02,13,2.30
2018,04,15,02,14,2.30
2018,04,15,02,15,2.30
2018,04,15,02,16,2.30
2018,04,15,02,17,2.30
2018,04,15,02,18,2.20
2018,04,15,02,19,2.20
2018,04,15,02,20,2.20
2018,04,15,02,21,2.20
2018,04,15,02,22,2.20
2018,04,15,02,23,2.20
2018,04,15,02,24,2.20
2018,04,15,02,25,2.20
2018,04,15,02,26,2.20
2018,04,15,02,27,2.20
2018,04,15,02,28,2.20
2018,04,15,02,29,2.10
2018,04,15,02,30,2.10
2018,04,15,02,31,2.10
2018,04,15,02,32,2.10
2018,04,15,02,33,2.10
2018,04,15,02,34,2.10
2018,04,15,02,35,2.00
2018,04,15,02,36,2.00
2018,04,15,02,37,2.00
2018,04,15,02,38,2.00
2018,04,15,02,39,1.90
2018,04,15,02,40,2.00
2018,04,15,02,41,2.00
2018,04,15,02,42,2.00
2018,04,15,02,43,2.00
2018,04,15,02,44,2.00
2018,04,15,02,45,2.00
2018,04,15,02,46,2.00
2018,04,15,02,47,2.10
2018,04,15,02,48,2.00
2018,04,15,02,49,2.00
2018,04,15,02,50,2.00
2018,04,15,02,51,2.00
2018,04,15,02,52,2.00
2018,04,15,02,53,1.90
2018,04,15,02,54,1.90
2018,04,15,02,55,1.90
2018,04,15,02,56,1.90
2018,04,15,02,57,1.90
2018,04,15,02,58,1.90
2018,04,15,02,59,1.90
2018,04,15,03,00,1.80
2018,04,15,03,01,1.80
2018,04,15,03,02,1.80
2018,04,15,03,03,1.80
2018,04,15,03,04,1.80
2018,04,15,03,05,1.80
2018,04,15,03,06,1.80
2018,04,15,03,07,1.80
2018,04,15,03,08,1.80
2018,04,15,03,09,1.80
2018,04,15,03,10,1.80
2018,04,15,03,11,1.80
2018,04,15,03,12,1.70
2018,04,15,03,13,1.70
2018,04,15,03,14,1.70
2018,04,15,03,15,1.60
2018,04,15,03,16,1.60
2018,04,15,03,17,1.60
2018,04,15,03,18,1.60
2018,04,15,03,19,1.60
2018,04,15,03,20,1.60
2018,04,15,03,21,1.50
2018,04,15,03,22,1.50
2018,04,15,03,23,1.50
2018,04,15,03,24,1.40
2018,04,15,03,25,1.40
2018,04,15,03,26,1.40
2018,04,15,03,27,1.40
2018,04,15,03,28,1.40
2018,04,15,03,29,1.40
2018,04,15,03,30,1.40
2018,04,15,03,31,1.40
2018,04,15,03,32,1.40
2018,04,15,03,33,1.40
2018,04,15,03,34,1.30
2018,04,15,03,35,1.30
2018,04,15,03,36,1.30
2018,04,15,03,37,1.30
2018,04,15,03,38,1.20
2018,04,15,03,39,1.20
2018,04,15,03,40,1.20
2018,04,15,03,41,1.20
2018,04,15,03,42,1.20
2018,04,15,03,43,1.20
2018,04,15,03,44,1.20
2018,04,15,03,45,1.20
2018,04,15,03,46,1.10
2018,04,15,03,47,1.10
2018,04,15,03,48,1.10
2018,04,15,03,49,1.10
2018,04,15,03,50,1.10
2018,04,15,03,51,1.10
2018,04,15,03,52,1.10
2018,04,15,03,53,1.10
2018,04,15,03,54,1.10
2018,04,15,03,55,1.10
2018,04,15,03,56,1.10
2018,04,15,03,57,1.10
2018,04,15,03,58,1.10
2018,04,15,03,59,1.10
2018,04,15,04,00,1.10
2018,04,15,04,01,1.20
2018,04,15,04,02,1.20
2018,04,15,04,03,1.20
2018,04,15,04,04,1.20
2018,04,15,04,05,1.20
2018,04,15,04,06,1.30
2018,04,15,04,07,1.30
2018,04,15,04,08,1.30
2018,04,15,04,09,1.30
2018,04,15,04,10,1.30
2018,04,15,04,11,1.30
2018,04,15,04,12,1.30
2018,04,15,04,13,1.30
2018,04,15,04,14,1.30
2018,04,15,04,15,1.30
2018,04,15,04,16,1.30
2018,04,15,04,17,1.30
2018,04,15,04,18,1.30
2018,04,15,04,19,1.30
2018,04,15,04,20,1.30
2018,04,15,04,21,1.30
2018,04,15,04,22,1.20
2018,04,15,04,23,1.20
2018,04,15,04,24,1.20
2018,04,15,04,25,1.20
2018,04,15,04,26,1.20
2018,04,15,04,27,1.20
2018,04,15,04,28,1.20
2018,04,15,04,29,1.20
2018,04,15,04,30,1.20
2018,04,15,04,31,1.20
2018,04,15,04,32,1.20
2018,04,15,04,33,1.20
2018,04,15,04,34,1.20
2018,04,15,04,35,1.20
2018,04,15,04,36,1.20
2018,04,15,04,37,1.20
2018,04,15,04,38,1.20
2018,04,15,04,39,1.20
2018,04,15,04,40,1.20
2018,04,15,04,41,1.10
2018,04,15,04,42,1.10
2018,04,15,04,43,1.10
2018,04,15,04,44,1.10
2018,04,15,04,45,1.10
2018,04,15,04,46,1.10
2018,04,15,04,47,1.10
2018,04,15,04,48,1.10
2018,04,15,04,49,1.10
2018,04,15,04,50,1.10
2018,04,15,04,51,1.10
2018,04,15,04,52,1.10
2018,04,15,04,53,1.10
2018,04,15,04,54,1.10
2018,04,15,04,55,1.10
2018,04,15,04,56,1.10
2018,04,15,04,57,1.10
2018,04,15,04,58,1.10
2018,04,15,04,59,1.10
2018,04,15,05,00,1.10
2018,04,15,05,01,1.10
2018,04,15,05,02,1.10
2018,04,15,05,03,1.10
2018,04,15,05,04,1.10
2018,04,15,05,05,1.10
2018,04,15,05,06,1.10
2018,04,15,05,07,1.10
2018,04,15,05,08,1.10
2018,04,15,05,09,1.10
2018,04,15,05,10,1.10
2018,04,15,05,11,1.10
2018,04,15,05,12,1.10
2018,04,15,05,13,1.10
2018,04,15,05,14,1.00
2018,04,15,05,15,1.00
2018,04,15,05,16,1.00
2018,04,15,05,17,1.00
2018,04,15,05,18,1.00
2018,04,15,05,19,1.00
2018,04,15,05,20,1.00
2018,04,15,05,21,1.00
2018,04,15,05,22,1.00
2018,04,15,05,23,1.00
2018,04,15,05,24,1.00
2018,04,15,05,25,1.00
2018,04,15,05,26,1.00
2018,04,15,05,27,1.00
2018,04,15,05,28,1.00
2018,04,15,05,29,1.00
2018,04,15,05,30,1.00
2018,04,15,05,31,0.90
2018,04,15,05,32,0.90
2018,04,15,05,33,0.90
2018,04,15,05,34,0.90
2018,04,15,05,35,0.90
2018,04,15,05,36,0.90
2018,04,15,05,37,0.90
2018,04,15,05,38,0.90
2018,04,15,05,39,0.90
2018,04,15,05,40,0.90
2018,04,15,05,41,0.90
2018,04,15,05,42,0.90
2018,04,15,05,43,0.90
2018,04,15,05,44,0.90
2018,04,15,05,45,0.90
2018,04,15,05,46,0.90
2018,04,15,05,47,0.80
2018,04,15,05,48,0.80
2018,04,15,05,49,0.80
2018,04,15,05,50,0.80
2018,04,15,05,51,0.80
2018,04,15,05,52,0.80
2018,04,15,05,53,0.80
2018,04,15,05,54,0.70
2018,04,15,05,55,0.70
2018,04,15,05,56,0.70
2018,04,15,05,57,0.70
2018,04,15,05,58,0.70
2018,04,15,05,59,0.70
2018,04,15,06,00,0.70
2018,04,15,06,01,0.70
2018,04,15,06,02,0.70
2018,04,15,06,03,0.70
2018,04,15,06,04,0.70
2018,04,15,06,05,0.60
2018,04,15,06,06,0.60
2018,04,15,06,07,0.60
2018,04,15,06,08,0.70
2018,04,15,06,09,0.60
2018,04,15,06,10,0.70
2018,04,15,06,11,0.70
2018,04,15,06,12,0.70
2018,04,15,06,13,0.70
2018,04,15,06,14,0.70
2018,04,15,06,15,0.70
2018,04,15,06,16,0.70
2018,04,15,06,17,0.80
2018,04,15,06,18,0.70
2018,04,15,06,19,0.80
2018,04,15,06,20,0.70
2018,04,15,06,21,0.70
2018,04,15,06,22,0.70
2018,04,15,06,23,0.70
2018,04,15,06,24,0.70
2018,04,15,06,25,0.70
2018,04,15,06,26,0.60
2018,04,15,06,27,0.60
2018,04,15,06,28,0.60
2018,04,15,06,29,0.50
2018,04,15,06,30,0.50
2018,04,15,06,31,0.50
2018,04,15,06,32,0.50
2018,04,15,06,33,0.50
2018,04,15,06,34,0.50
2018,04,15,06,35,0.50
2018,04,15,06,36,0.50
2018,04,15,06,37,0.50
2018,04,15,06,38,0.50
2018,04,15,06,39,0.50
2018,04,15,06,40,0.50
2018,04,15,06,41,0.60
2018,04,15,06,42,0.60
2018,04,15,06,43,0.60
2018,04,15,06,44,0.60
2018,04,15,06,45,0.60
2018,04,15,06,46,0.60
2018,04,15,06,47,0.60
2018,04,15,06,48,0.60
2018,04,15,06,49,0.60
2018,04,15,06,50,0.60
2018,04,15,06,51,0.60
2018,04,15,06,52,0.60
2018,04,15,06,53,0.70
2018,04,15,06,54,0.70
2018,04,15,06,55,0.70
2018,04,15,06,56,0.70
2018,04,15,06,57,0.60
2018,04,15,06,58,0.60
2018,04,15,06,59,0.60
2018,04,15,07,00,0.60
2018,04,15,07,01,0.60
2018,04,15,07,02,0.60
2018,04,15,07,03,0.60
2018,04,15,07,04,0.60
2018,04,15,07,05,0.60
2018,04,15,07,06,0.60
2018,04,15,07,07,0.60
2018,04,15,07,08,0.60
2018,04,15,07,09,0.60
2018,04,15,07,10,0.70
2018,04,15,07,11,0.70
2018,04,15,07,12,0.70
2018,04,15,07,13,0.70
2018,04,15,07,14,0.80
2018,04,15,07,15,0.80
2018,04,15,07,16,0.80
2018,04,15,07,17,0.80
2018,04,15,07,18,0.80
2018,04,15,07,19,0.80
2018,04,15,07,20,0.80
2018,04,15,07,21,0.80
2018,04,15,07,22,0.80
2018,04,15,07,23,0.80
2018,04,15,07,24,0.80
2018,04,15,07,25,0.90
2018,04,15,07,26,0.90
2018,04,15,07,27,0.90
2018,04,15,07,28,0.90
2018,04,15,07,29,0.90
2018,04,15,07,30,0.90
2018,04,15,07,31,0.80
2018,04,15,07,32,0.80
2018,04,15,07,33,0.80
2018,04,15,07,34,0.80
2018,04,15,07,35,0.80
2018,04,15,07,36,0.70
2018,04,15,07,37,0.70
2018,04,15,07,38,0.70
2018,04,15,07,39,0.70
2018,04,15,07,40,0.70
2018,04,15,07,41,0.70
2018,04,15,07,42,0.70
2018,04,15,07,43,0.70
2018,04,15,07,44,0.70
2018,04,15,07,45,0.60
2018,04,15,07,46,0.60
2018,04,15,07,47,0.60
2018,04,15,07,48,0.60
2018,04,15,07,49,0.60
2018,04,15,07,50,0.60
2018,04,15,07,51,0.60
2018,04,15,07,52,0.60
2018,04,15,07,53,0.60
2018,04,15,07,54,0.70
2018,04,15,07,55,0.60
2018,04,15,07,56,0.70
2018,04,15,07,57,0.70
2018,04,15,07,58,0.70
2018,04,15,07,59,0.70
2018,04,15,08,00,0.70
2018,04,15,08,01,0.70
2018,04,15,08,02,0.70
2018,04,15,08,03,0.70
2018,04,15,08,04,0.70
2018,04,15,08,05,0.70
2018,04,15,08,06,0.70
2018,04,15,08,07,0.70
2018,04,15,08,08,0.70
2018,04,15,08,09,0.70
2018,04,15,08,10,0.70
2018,04,15,08,11,0.70
2018,04,15,08,12,0.70
2018,04,15,08,13,0.70
2018,04,15,08,14,0.70
2018,04,15,08,15,0.70
2018,04,15,08,16,0.70
2018,04,15,08,17,0.70
2018,04,15,08,18,0.70
2018,04,15,08,19,0.70
2018,04,15,08,20,0.70
2018,04,15,08,21,0.70
2018,04,15,08,22,0.70
2018,04,15,08,23,0.70
2018,04,15,08,24,0.70
2018,04,15,08,25,0.70
2018,04,15,08,26,0.70
2018,04,15,08,27,0.80
2018,04,15,08,28,0.80
2018,04,15,08,29,0.80
2018,04,15,08,30,0.80
2018,04,15,08,31,0.80
2018,04,15,08,32,0.80
2018,04,15,08,33,0.80
2018,04,15,08,34,0.80
2018,04,15,08,35,0.80
2018,04,15,08,36,0.80
2018,04,15,08,37,0.80
2018,04,15,08,38,0.80
2018,04,15,08,39,0.80
2018,04,15,08,40,0.80
2018,04,15,08,41,0.80
2018,04,15,08,42,0.80
2018,04,15,08,43,0.80
2018,04,15,08,44,0.80
2018,04,15,08,45,0.80
2018,04,15,08,46,0.80
2018,04,15,08,47,0.80
2018,04,15,08,48,0.80
2018,04,15,08,49,0.80
2018,04,15,08,50,0.80
2018,04,15,08,51,0.80
2018,04,15,08,52,0.80
2018,04,15,08,53,0.80
2018,04,15,08,54,0.80
2018,04,15,08,55,0.80
2018,04,15,08,56,0.80
2018,04,15,08,57,0.80
2018,04,15,08,58,0.80
2018,04,15,08,59,0.80
2018,04,15,09,00,0.80
2018,04,15,09,01,0.80
2018,04,15,09,02,0.80
2018,04,15,09,03,0.80
2018,04,15,09,04,0.80
2018,04,15,09,05,0.80
2018,04,15,09,06,0.80
2018,04,15,09,07,0.80
2018,04,15,09,08,0.80
2018,04,15,09,09,0.90
2018,04,15,09,10,0.90
2018,04,15,09,11,0.90
2018,04,15,09,12,1.00
2018,04,15,09,13,1.00
2018,04,15,09,14,1.00
2018,04,15,09,15,1.00
2018,04,15,09,16,1.10
2018,04,15,09,17,1.10
2018,04,15,09,18,1.10
2018,04,15,09,19,1.10
2018,04,15,09,20,1.10
2018,04,15,09,21,1.20
2018,04,15,09,22,1.20
2018,04,15,09,23,1.20
2018,04,15,09,24,1.20
2018,04,15,09,25,1.20
2018,04,15,09,26,1.20
2018,04,15,09,27,1.30
2018,04,15,09,28,1.30
2018,04,15,09,29,1.30
2018,04,15,09,30,1.40
2018,04,15,09,31,1.40
2018,04,15,09,32,1.40
2018,04,15,09,33,1.40
2018,04,15,09,34,1.40
2018,04,15,09,35,1.40
2018,04,15,09,36,1.50
2018,04,15,09,37,1.50
2018,04,15,09,38,1.60
2018,04,15,09,39,1.70
2018,04,15,09,40,1.80
2018,04,15,09,41,1.80
2018,04,15,09,42,1.90
2018,04,15,09,43,2.00
2018,04,15,09,44,2.00
2018,04,15,09,45,2.10
2018,04,15,09,46,2.10
2018,04,15,09,47,2.20
2018,04,15,09,48,2.20
2018,04,15,09,49,2.20
2018,04,15,09,50,2.20
2018,04,15,09,51,2.20
2018,04,15,09,52,2.20
2018,04,15,09,53,2.20
2018,04,15,09,54,2.30
2018,04,15,09,55,2.30
2018,04,15,09,56,2.40
2018,04,15,09,57,2.40
2018,04,15,09,58,2.40
2018,04,15,09,59,2.50
2018,04,15,10,00,2.50
2018,04,15,10,01,2.60
2018,04,15,10,02,2.70
2018,04,15,10,03,2.70
2018,04,15,10,04,2.70
2018,04,15,10,05,2.80
2018,04,15,10,06,2.80
2018,04,15,10,07,2.80
2018,04,15,10,08,2.90
2018,04,15,10,09,3.00
2018,04,15,10,10,3.00
2018,04,15,10,11,3.10
2018,04,15,10,12,3.20
2018,04,15,10,13,3.30
2018,04,15,10,14,3.30
2018,04,15,10,15,3.40
2018,04,15,10,16,3.50
2018,04,15,10,17,3.50
2018,04,15,10,18,3.60
2018,04,15,10,19,3.70
2018,04,15,10,20,3.70
2018,04,15,10,21,3.70
2018,04,15,10,22,3.80
2018,04,15,10,23,3.90
2018,04,15,10,24,3.90
2018,04,15,10,25,4.00
2018,04,15,10,26,4.20
2018,04,15,10,27,4.30
2018,04,15,10,28,4.40
2018,04,15,10,29,4.50
2018,04,15,10,30,4.50
2018,04,15,10,31,4.60
2018,04,15,10,32,4.60
2018,04,15,10,33,4.60
2018,04,15,10,34,4.60
2018,04,15,10,35,4.60
2018,04,15,10,36,4.70
2018,04,15,10,37,4.70
2018,04,15,10,38,4.80
2018,04,15,10,39,4.90
2018,04,15,10,40,5.00
2018,04,15,10,41,5.10
2018,04,15,10,42,5.20
2018,04,15,10,43,5.20
2018,04,15,10,44,5.30
2018,04,15,10,45,5.40
2018,04,15,10,46,5.50
2018,04,15,10,47,5.50
2018,04,15,10,48,5.60
2018,04,15,10,49,5.70
2018,04,15,10,50,5.70
2018,04,15,10,51,5.80
2018,04,15,10,52,5.80
2018,04,15,10,53,5.90
2018,04,15,10,54,5.90
2018,04,15,10,55,5.90
2018,04,15,10,56,6.00
2018,04,15,10,57,6.00
2018,04,15,10,58,6.00
2018,04,15,10,59,6.10
2018,04,15,11,00,6.10
2018,04,15,11,01,6.10
2018,04,15,11,02,6.10
2018,04,15,11,03,6.20
2018,04,15,11,04,6.30
2018,04,15,11,05,6.30
2018,04,15,11,06,6.30
2018,04,15,11,07,6.40
2018,04,15,11,08,6.40
2018,04,15,11,09,6.40
2018,04,15,11,10,6.40
2018,04,15,11,11,6.40
2018,04,15,11,12,6.40
2018,04,15,11,13,6.40
2018,04,15,11,14,6.40
2018,04,15,11,15,6.50
2018,04,15,11,16,6.60
2018,04,15,11,17,6.60
2018,04,15,11,18,6.60
2018,04,15,11,19,6.50
2018,04,15,11,20,6.50
2018,04,15,11,21,6.60
2018,04,15,11,22,6.60
2018,04,15,11,23,6.70
2018,04,15,11,24,6.80
2018,04,15,11,25,6.90
2018,04,15,11,26,7.00
2018,04,15,11,27,7.20
2018,04,15,11,28,7.30
2018,04,15,11,29,7.30
2018,04,15,11,30,7.40
2018,04,15,11,31,7.40
2018,04,15,11,32,7.40
2018,04,15,11,33,7.30
2018,04,15,11,34,7.40
2018,04,15,11,35,7.50
2018,04,15,11,36,7.60
2018,04,15,11,37,7.70
2018,04,15,11,38,7.80
2018,04,15,11,39,7.90
2018,04,15,11,40,7.90
2018,04,15,11,41,8.00
2018,04,15,11,42,8.00
2018,04,15,11,43,8.10
2018,04,15,11,44,8.20
2018,04,15,11,45,8.20
2018,04,15,11,46,8.30
2018,04,15,11,47,8.40
2018,04,15,11,48,8.50
2018,04,15,11,49,8.60
2018,04,15,11,50,8.70
2018,04,15,11,51,8.80
2018,04,15,11,52,8.80
2018,04,15,11,53,8.90
2018,04,15,11,54,8.90
2018,04,15,11,55,8.90
2018,04,15,11,56,9.00
2018,04,15,11,57,9.00
2018,04,15,11,58,9.10
2018,04,15,11,59,9.10
2018,04,15,12,00,9.10
2018,04,15,12,01,9.10
2018,04,15,12,02,9.20
2018,04,15,12,03,9.40
2018,04,15,12,04,9.50
2018,04,15,12,05,9.50
2018,04,15,12,06,9.40
2018,04,15,12,07,9.50
2018,04,15,12,08,9.60
2018,04,15,12,09,9.80
2018,04,15,12,10,9.80
2018,04,15,12,11,9.80
2018,04,15,12,12,9.80
2018,04,15,12,13,10.00
2018,04,15,12,14,10.10
2018,04,15,12,15,10.30
2018,04,15,12,16,10.40
2018,04,15,12,17,10.40
2018,04,15,12,18,10.30
2018,04,15,12,19,10.20
2018,04,15,12,20,10.20
2018,04,15,12,21,10.20
2018,04,15,12,22,10.20
2018,04,15,12,23,10.20
2018,04,15,12,24,10.10
2018,04,15,12,25,10.10
2018,04,15,12,26,10.20
2018,04,15,12,27,10.20
2018,04,15,12,28,10.20
2018,04,15,12,29,10.30
2018,04,15,12,30,10.40
2018,04,15,12,31,10.50
2018,04,15,12,32,10.60
2018,04,15,12,33,10.70
2018,04,15,12,34,10.70
2018,04,15,12,35,10.70
2018,04,15,12,36,10.70
2018,04,15,12,37,10.60
2018,04,15,12,38,10.60
2018,04,15,12,39,10.50
2018,04,15,12,40,10.30
2018,04,15,12,41,10.30
2018,04,15,12,42,10.30
2018,04,15,12,43,10.30
2018,04,15,12,44,10.30
2018,04,15,12,45,10.40
2018,04,15,12,46,10.40
2018,04,15,12,47,10.50
2018,04,15,12,48,10.60
2018,04,15,12,49,10.60
2018,04,15,12,50,10.60
2018,04,15,12,51,10.70
2018,04,15,12,52,10.70
2018,04,15,12,53,10.80
2018,04,15,12,54,10.90
2018,04,15,12,55,10.90
2018,04,15,12,56,10.90
2018,04,15,12,57,10.80
2018,04,15,12,58,10.80
2018,04,15,12,59,10.80
2018,04,15,13,00,10.80
2018,04,15,13,01,10.80
2018,04,15,13,02,10.80
2018,04,15,13,03,10.80
2018,04,15,13,04,10.70
2018,04,15,13,05,10.70
2018,04,15,13,06,10.60
2018,04,15,13,07,10.60
2018,04,15,13,08,10.50
2018,04,15,13,09,10.40
2018,04,15,13,10,10.40
2018,04,15,13,11,10.40
2018,04,15,13,12,10.40
2018,04,15,13,13,10.30
2018,04,15,13,14,10.40
2018,04,15,13,15,10.40
2018,04,15,13,16,10.60
2018,04,15,13,17,10.70
2018,04,15,13,18,10.80
2018,04,15,13,19,10.90
2018,04,15,13,20,11.00
2018,04,15,13,21,11.10
2018,04,15,13,22,11.10
2018,04,15,13,23,11.10
2018,04,15,13,24,11.10
2018,04,15,13,25,11.00
2018,04,15,13,26,10.90
2018,04,15,13,27,10.80
2018,04,15,13,28,10.80
2018,04,15,13,29,10.70
2018,04,15,13,30,10.70
2018,04,15,13,31,10.70
2018,04,15,13,32,10.80
2018,04,15,13,33,10.90
2018,04,15,13,34,11.00
2018,04,15,13,35,11.10
2018,04,15,13,36,11.20
2018,04,15,13,37,11.30
2018,04,15,13,38,11.30
2018,04,15,13,39,11.30
2018,04,15,13,40,11.30
2018,04,15,13,41,11.40
2018,04,15,13,42,11.50
2018,04,15,13,43,11.60
2018,04,15,13,44,11.70
2018,04,15,13,45,11.80
2018,04,15,13,46,11.90
2018,04,15,13,47,11.90
2018,04,15,13,48,12.00
2018,04,15,13,49,11.90
2018,04,15,13,50,11.90
2018,04,15,13,51,11.90
2018,04,15,13,52,11.80
2018,04,15,13,53,11.80
2018,04,15,13,54,11.80
2018,04,15,13,55,11.80
2018,04,15,13,56,11.80
2018,04,15,13,57,11.90
2018,04,15,13,58,12.00
2018,04,15,13,59,12.00
2018,04,15,14,00,12.10
2018,04,15,14,01,12.20
2018,04,15,14,02,12.30
2018,04,15,14,03,12.40
2018,04,15,14,04,12.40
2018,04,15,14,05,12.50
2018,04,15,14,06,12.60
2018,04,15,14,07,12.60
2018,04,15,14,08,12.60
2018,04,15,14,09,12.50
2018,04,15,14,10,12.40
2018,04,15,14,11,12.40
2018,04,15,14,12,12.50
2018,04,15,14,13,12.50
2018,04,15,14,14,12.50
2018,04,15,14,15,12.50
2018,04,15,14,16,12.50
2018,04,15,14,17,12.40
2018,04,15,14,18,12.50
2018,04,15,14,19,12.50
2018,04,15,14,20,12.60
2018,04,15,14,21,12.60
2018,04,15,14,22,12.70
2018,04,15,14,23,12.80
2018,04,15,14,24,12.90
2018,04,15,14,25,13.00
2018,04,15,14,26,13.00
2018,04,15,14,27,13.10
2018,04,15,14,28,13.10
2018,04,15,14,29,13.20
2018,04,15,14,30,13.30
2018,04,15,14,31,13.40
2018,04,15,14,32,13.40
2018,04,15,14,33,13.50
2018,04,15,14,34,13.40
2018,04,15,14,35,13.40
2018,04,15,14,36,13.40
2018,04,15,14,37,13.40
2018,04,15,14,38,13.50
2018,04,15,14,39,13.50
2018,04,15,14,40,13.50
2018,04,15,14,41,13.50
2018,04,15,14,42,13.50
2018,04,15,14,43,13.40
2018,04,15,14,44,13.30
2018,04,15,14,45,13.30
2018,04,15,14,46,13.20
2018,04,15,14,47,13.00
2018,04,15,14,48,12.90
2018,04,15,14,49,12.80
2018,04,15,14,50,12.70
2018,04,15,14,51,12.60
2018,04,15,14,52,12.50
2018,04,15,14,53,12.50
2018,04,15,14,54,12.50
2018,04,15,14,55,12.50
2018,04,15,14,56,12.50
2018,04,15,14,57,12.40
2018,04,15,14,58,12.40
2018,04,15,14,59,12.30
2018,04,15,15,00,12.20
2018,04,15,15,01,12.10
2018,04,15,15,02,12.00
2018,04,15,15,03,11.90
2018,04,15,15,04,11.90
2018,04,15,15,05,11.80
2018,04,15,15,06,11.80
2018,04,15,15,07,11.80
2018,04,15,15,08,11.80
2018,04,15,15,09,11.80
2018,04,15,15,10,11.80
2018,04,15,15,11,11.90
2018,04,15,15,12,12.10
2018,04,15,15,13,12.20
2018,04,15,15,14,12.40
2018,04,15,15,15,12.50
2018,04,15,15,16,12.60
2018,04,15,15,17,12.60
2018,04,15,15,18,12.70
2018,04,15,15,19,12.60
2018,04,15,15,20,12.70
2018,04,15,15,21,12.70
2018,04,15,15,22,12.70
2018,04,15,15,23,12.70
2018,04,15,15,24,12.70
2018,04,15,15,25,12.70
2018,04,15,15,26,12.70
2018,04,15,15,27,12.70
2018,04,15,15,28,12.70
2018,04,15,15,29,12.70
2018,04,15,15,30,12.80
2018,04,15,15,31,12.80
2018,04,15,15,32,12.80
2018,04,15,15,33,12.80
2018,04,15,15,34,12.80
2018,04,15,15,35,12.70
2018,04,15,15,36,12.70
2018,04,15,15,37,12.70
2018,04,15,15,38,12.60
2018,04,15,15,39,12.50
2018,04,15,15,40,12.40
2018,04,15,15,41,12.40
2018,04,15,15,42,12.30
2018,04,15,15,43,12.30
2018,04,15,15,44,12.20
2018,04,15,15,45,12.20
2018,04,15,15,46,12.20
2018,04,15,15,47,12.20
2018,04,15,15,48,12.20
2018,04,15,15,49,12.20
2018,04,15,15,50,12.30
2018,04,15,15,51,12.40
2018,04,15,15,52,12.40
2018,04,15,15,53,12.40
2018,04,15,15,54,12.50
2018,04,15,15,55,12.60
2018,04,15,15,56,12.70
2018,04,15,15,57,12.70
2018,04,15,15,58,12.70
2018,04,15,15,59,12.70
2018,04,15,16,00,12.70
2018,04,15,16,01,12.70
2018,04,15,16,02,12.70
2018,04,15,16,03,12.70
2018,04,15,16,04,12.70
2018,04,15,16,05,12.70
2018,04,15,16,06,12.80
2018,04,15,16,07,12.80
2018,04,15,16,08,12.80
2018,04,15,16,09,12.80
2018,04,15,16,10,12.80
2018,04,15,16,11,12.80
2018,04,15,16,12,12.80
2018,04,15,16,13,12.80
2018,04,15,16,14,12.70
2018,04,15,16,15,12.70
2018,04,15,16,16,12.70
2018,04,15,16,17,12.80
2018,04,15,16,18,12.80
2018,04,15,16,19,12.70
2018,04,15,16,20,12.70
2018,04,15,16,21,12.60
2018,04,15,16,22,12.40
2018,04,15,16,23,12.30
2018,04,15,16,24,12.20
2018,04,15,16,25,12.20
2018,04,15,16,26,12.20
2018,04,15,16,27,12.20
2018,04,15,16,28,12.20
2018,04,15,16,29,12.30
2018,04,15,16,30,12.30
2018,04,15,16,31,12.40
2018,04,15,16,32,12.40
2018,04,15,16,33,12.40
2018,04,15,16,34,12.40
2018,04,15,16,35,12.40
2018,04,15,16,36,12.30
2018,04,15,16,37,12.30
2018,04,15,16,38,12.30
2018,04,15,16,39,12.30
2018,04,15,16,40,12.30
2018,04,15,16,41,12.30
2018,04,15,16,42,12.30
2018,04,15,16,43,12.30
2018,04,15,16,44,12.40
2018,04,15,16,45,12.40
2018,04,15,16,46,12.30
2018,04,15,16,47,12.30
2018,04,15,16,48,12.30
2018,04,15,16,49,12.30
2018,04,15,16,50,12.20
2018,04,15,16,51,12.20
2018,04,15,16,52,12.20
2018,04,15,16,53,12.20
2018,04,15,16,54,12.20
2018,04,15,16,55,12.20
2018,04,15,16,56,12.20
2018,04,15,16,57,12.20
2018,04,15,16,58,12.20
2018,04,15,16,59,12.20
2018,04,15,17,00,12.20
2018,04,15,17,01,12.20
2018,04,15,17,02,12.20
2018,04,15,17,03,12.20
2018,04,15,17,04,12.20
2018,04,15,17,05,12.20
2018,04,15,17,06,12.10
2018,04,15,17,07,12.10
2018,04,15,17,08,12.10
2018,04,15,17,09,12.10
2018,04,15,17,10,12.10
2018,04,15,17,11,12.10
2018,04,15,17,12,12.10
2018,04,15,17,13,12.10
2018,04,15,17,14,12.10
2018,04,15,17,15,12.20
2018,04,15,17,16,12.20
2018,04,15,17,17,12.10
2018,04,15,17,18,12.20
2018,04,15,17,19,12.10
2018,04,15,17,20,12.20
2018,04,15,17,21,12.20
2018,04,15,17,22,12.20
2018,04,15,17,23,12.20
2018,04,15,17,24,12.20
2018,04,15,17,25,12.30
2018,04,15,17,26,12.30
2018,04,15,17,27,12.20
2018,04,15,17,28,12.20
2018,04,15,17,29,12.30
2018,04,15,17,30,12.20
2018,04,15,17,31,12.10
2018,04,15,17,32,11.90
2018,04,15,17,33,11.80
2018,04,15,17,34,11.60
2018,04,15,17,35,11.40
2018,04,15,17,36,11.20
2018,04,15,17,37,11.10
2018,04,15,17,38,11.00
2018,04,15,17,39,10.90
2018,04,15,17,40,10.90
2018,04,15,17,41,10.80
2018,04,15,17,42,10.80
2018,04,15,17,43,10.80
2018,04,15,17,44,10.80
2018,04,15,17,45,10.80
2018,04,15,17,46,10.70
2018,04,15,17,47,10.70
2018,04,15,17,48,10.60
2018,04,15,17,49,10.60
2018,04,15,17,50,10.60
2018,04,15,17,51,10.50